EW7351 Weather Reports


time (UTC)temp
C
wind
direction
speed
KPH
gust
KPH
rain 1hr
cm
rain 24hr
cm
rain mn
cm
humidity
%
barometer
mb
20260509192428 29 357 1.6 11.3 0.00 0.00 0.00 59 1008.2
20260509191900 30 341 1.6 11.3 0.00 0.00 0.00 57 1008.3
20260509191338 30 53 1.6 11.3 0.00 0.00 0.00 58 1008.4
20260509190837 29 47 1.6 9.7 0.00 0.00 0.00 59 1008.4
20260509190316 29 77 1.6 9.7 0.00 0.00 0.00 62 1008.4
20260509185941 29 321 1.6 9.7 0.00 0.00 0.00 61 1008.5
20260509185441 28 131 3.2 20.9 0.00 0.00 0.00 61 1008.5
20260509184711 28 73 4.8 20.9 0.00 0.00 0.00 60 1008.4
20260509184212 28 347 3.2 16.1 0.00 0.00 0.00 59 1008.4
20260509183709 28 45 1.6 16.1 0.00 0.00 0.00 62 1008.4
20260509183435 28 72 3.2 12.9 0.00 0.00 0.00 62 1008.4
20260509182648 28 322 3.2 14.5 0.00 0.00 0.00 60 1008.4
20260509182149 28 83 3.2 14.5 0.00 0.00 0.00 64 1008.5
20260509181916 28 50 3.2 12.9 0.00 0.00 0.00 61 1008.6
20260509181128 28 323 3.2 12.9 0.00 0.00 0.00 60 1008.7
20260509180627 28 328 3.2 11.3 0.00 0.00 0.00 61 1008.7
20260509180338 28 63 1.6 9.7 0.00 0.00 0.00 62 1008.7
20260509175548 28 326 1.6 12.9 0.00 0.00 0.00 61 1008.8
20260509175026 28 348 1.6 12.9 0.00 0.00 0.00 62 1008.9
20260509174747 27 347 1.6 9.7 0.00 0.00 0.00 62 1009.0
20260509174024 27 336 1.6 9.7 0.00 0.00 0.00 62 1008.9
20260509173500 28 354 1.6 9.7 0.00 0.00 0.00 61 1009.0
20260509172941 28 355 1.6 11.3 0.00 0.00 0.00 64 1009.1
20260509172416 28 337 1.6 11.3 0.00 0.00 0.00 61 1009.1
20260509171850 28 249 1.6 8.0 0.00 0.00 0.00 60 1009.1
20260509171327 27 118 1.6 8.0 0.00 0.00 0.00 64 1009.2
20260509170758 27 27 1.6 8.0 0.00 0.00 0.00 64 1009.3
20260509170258 27 356 3.2 9.7 0.00 0.00 0.00 62 1009.3
20260509165755 27 359 1.6 9.7 0.00 0.00 0.00 62 1009.2
20260509165255 27 336 1.6 11.3 0.00 0.00 0.00 66 1009.1
20260509164755 27 354 1.6 11.3 0.00 0.00 0.00 66 1009.2
20260509164256 27 68 1.6 6.4 0.00 0.00 0.00 64 1009.2
20260509163943 27 8 1.6 9.7 0.00 0.00 0.00 64 1009.2
20260509163225 27 52 1.6 9.7 0.00 0.00 0.00 65 1009.3
20260509162659 26 5 1.6 6.4 0.00 0.00 0.00 66 1009.2
20260509162157 26 329 1.6 6.4 0.00 0.00 0.00 67 1009.2
20260509161633 26 22 3.2 11.3 0.00 0.00 0.00 68 1009.2
20260509161128 26 20 1.6 11.3 0.00 0.00 0.00 68 1009.1
20260509160626 26 334 3.2 11.3 0.00 0.00 0.00 68 1009.2
20260509160349 25 13 4.8 17.7 0.00 0.00 0.00 69 1009.2
20260509155623 25 326 3.2 17.7 0.00 0.00 0.00 69 1009.2
20260509155118 25 9 3.2 11.3 0.00 0.00 0.00 70 1009.1
20260509154614 25 338 3.2 9.7 0.00 0.00 0.00 69 1009.1
20260509154113 25 38 1.6 11.3 0.00 0.00 0.00 71 1009.1
20260509153609 25 358 3.2 11.3 0.00 0.00 0.00 70 1009.1
20260509153105 25 323 1.6 9.7 0.00 0.00 0.00 71 1009.1
20260509152825 25 349 3.2 9.7 0.00 0.00 0.00 72 1009.0
20260509152037 25 72 3.2 14.5 0.00 0.00 0.00 72 1008.9
20260509151512 25 337 3.2 14.5 0.00 0.00 0.00 71 1009.0
20260509150946 24 352 4.8 12.9 0.00 0.00 0.00 72 1009.0
20260509150420 24 350 4.8 9.7 0.00 0.00 0.00 73 1009.0
20260509150119 24 342 4.8 17.7 0.00 0.00 0.00 73 1009.1
20260509145349 24 351 4.8 9.7 0.00 0.00 0.00 74 1009.1
20260509144848 23 320 3.2 12.9 0.00 0.00 0.00 74 1009.2
20260509144544 23 321 3.2 12.9 0.00 0.00 0.00 76 1009.3
20260509144243 23 330 1.6 11.3 0.00 0.00 0.00 76 1009.2
20260509143251 23 9 1.6 11.3 0.00 0.00 0.00 77 1009.2
20260509142749 23 353 3.2 9.7 0.00 0.00 0.00 78 1009.2
20260509142222 23 12 3.2 9.7 0.00 0.00 0.00 78 1009.1
20260509141720 23 350 1.6 9.7 0.00 0.00 0.00 77 1009.1
20260509141216 23 17 1.6 9.7 0.00 0.00 0.00 77 1009.0
20260509140713 23 274 3.2 12.9 0.00 0.00 0.00 80 1008.9
20260509140147 22 6 3.2 12.9 0.00 0.00 0.00 79 1008.9
20260509135838 22 70 3.2 9.7 0.00 0.00 0.00 79 1008.8
20260509135114 23 37 3.2 9.7 0.00 0.00 0.00 78 1008.9
20260509134550 22 58 3.2 12.9 0.00 0.00 0.00 79 1008.8
20260509134238 22 28 3.2 12.9 0.00 0.00 0.00 81 1008.7
20260509133454 22 36 3.2 12.9 0.00 0.00 0.00 81 1008.7
20260509132941 22 54 1.6 12.9 0.00 0.00 0.00 82 1008.7
20260509132658 22 274 0.0 9.7 0.00 0.00 0.00 83 1008.7
20260509131911 22 359 3.2 8.0 0.00 0.00 0.00 84 1008.6
20260509131346 21 27 3.2 11.3 0.00 0.00 0.00 84 1008.4
20260509130820 21 347 0.0 9.7 0.00 0.00 0.00 86 1008.5
20260509130316 21 276 0.0 4.8 0.00 0.00 0.00 87 1008.6
20260509125748 21 228 0.0 4.8 0.00 0.00 0.00 88 1008.6
20260509125242 21 276 0.0 4.8 0.00 0.00 0.00 89 1008.5
20260509124740 20 221 0.0 3.2 0.00 0.00 0.00 89 1008.5
20260509124210 20 224 0.0 3.2 0.00 0.00 0.00 89 1008.7
20260509123709 20 124 0.0 0.0 0.00 0.00 0.00 89 1008.5
20260509123142 19 124 0.0 0.0 0.00 0.00 0.00 89 1008.6
20260509122618 19 124 0.0 0.0 0.00 0.00 0.00 88 1008.7
20260509122320 19 124 0.0 0.0 0.00 0.00 0.00 88 1008.5
20260509121742 19 124 0.0 0.0 0.00 0.00 0.00 88 1008.6
20260509120954 20 124 0.0 0.0 0.00 0.00 0.00 88 1008.5
20260509120710 20 124 0.0 0.0 0.00 0.00 0.00 88 1008.5
20260509115948 20 124 0.0 0.0 0.00 0.00 0.00 88 1008.5
20260509115416 20 124 0.0 0.0 0.00 0.00 0.00 88 1008.5
20260509114847 20 124 0.0 0.0 0.00 0.00 0.00 87 1008.4
20260509114345 20 124 0.0 0.0 0.00 0.00 0.00 87 1008.2
20260509113841 20 124 0.0 0.0 0.00 0.00 0.00 87 1008.2
20260509113338 20 124 0.0 0.0 0.00 0.00 0.00 87 1008.0
20260509112813 20 124 0.0 0.0 0.00 0.00 0.00 86 1007.9
20260509112246 20 124 0.0 0.0 0.00 0.00 0.00 87 1007.9
20260509111744 20 124 0.0 1.6 0.00 0.00 0.00 87 1007.9
20260509111231 20 124 0.0 4.8 0.00 0.00 0.00 87 1007.8
20260509110734 20 124 0.0 4.8 0.00 0.00 0.00 87 1007.7
20260509110424 20 124 1.6 4.8 0.00 0.00 0.00 87 1007.7
20260509105931 20 114 1.6 6.4 0.00 0.00 0.00 87 1007.5
20260509105135 20 122 1.6 6.4 0.00 0.00 0.00 87 1007.6
20260509104633 20 134 0.0 1.6 0.00 0.00 0.00 87 1007.6
20260509104109 20 230 0.0 0.0 0.00 0.00 0.00 87 1007.7
20260509103814 20 231 0.0 0.0 0.00 0.00 0.00 87 1007.7
20260509103320 20 231 0.0 0.0 0.00 0.00 0.00 87 1007.6
20260509102532 20 230 0.0 0.0 0.00 0.00 0.00 87 1007.6
20260509102003 20 230 0.0 0.0 0.00 0.00 0.00 86 1007.5
20260509101502 20 231 0.0 0.0 0.00 0.00 0.00 86 1007.6
20260509100936 20 230 0.0 1.6 0.00 0.00 0.00 86 1007.5
20260509100628 20 231 0.0 1.6 0.00 0.00 0.00 86 1007.6
20260509100130 20 230 0.0 4.8 0.00 0.00 0.00 86 1007.4
20260509095340 20 235 1.6 4.8 0.00 0.00 0.00 86 1007.3
20260509095035 20 229 3.2 9.7 0.00 0.00 0.00 87 1007.2
20260509094250 20 238 1.6 8.0 0.00 0.00 0.00 87 1007.1
20260509093720 20 241 1.6 11.3 0.00 0.00 0.00 87 1007.0
20260509093219 20 195 4.8 11.3 0.00 0.00 0.00 87 1006.8
20260509092653 20 226 6.4 14.5 0.00 0.00 0.00 87 1006.2
20260509092344 20 150 4.8 14.5 0.00 0.00 0.00 87 1006.0
20260509091622 20 139 4.8 11.3 0.00 0.00 0.00 87 1006.0
20260509091054 20 124 4.8 14.5 0.00 0.00 0.00 86 1005.9
20260509090550 20 109 4.8 14.5 0.00 0.00 0.00 86 1005.7
20260509090047 20 136 4.8 14.5 0.00 0.00 0.00 86 1005.7
20260509085543 20 128 3.2 14.5 0.00 0.00 0.00 85 1006.0
20260509085241 20 192 3.2 14.5 0.00 0.00 0.00 85 1006.2
20260509084710 20 137 6.4 17.7 0.00 0.00 0.00 85 1006.3
20260509083926 20 153 6.4 17.7 0.00 0.00 0.00 85 1006.3
20260509083650 20 149 4.8 11.3 0.00 0.00 0.00 85 1006.6
20260509082920 20 96 3.2 9.7 0.00 0.00 0.00 84 1007.0
20260509082846 20 261 3.2 9.7 0.00 0.00 0.00 84 1007.4
20260509081829 20 156 3.2 8.0 0.00 0.00 0.00 84 1007.8
20260509081324 21 146 3.2 8.0 0.00 0.00 0.00 84 1007.7
20260509081234 21 99 3.2 8.0 0.00 0.00 0.00 84 1008.0
20260509080515 21 128 1.6 8.0 0.00 0.00 0.00 84 1008.0
20260509075729 20 140 0.0 6.4 0.00 0.00 0.00 84 1008.4
20260509075227 20 134 0.0 3.2 0.00 0.00 0.00 84 1008.4
20260509074724 20 129 0.0 1.6 0.00 0.00 0.00 85 1008.5
20260509074225 20 124 0.0 1.6 0.00 0.00 0.00 85 1008.7
20260509073659 20 123 0.0 1.6 0.00 0.00 0.00 84 1008.9
20260509073139 20 205 0.0 0.0 0.00 0.00 0.00 84 1009.1
20260509072637 20 205 0.0 0.0 0.00 0.00 0.00 84 1009.1
20260509072127 20 205 0.0 0.0 0.00 0.00 0.00 84 1009.2
20260509071605 20 205 0.0 0.0 0.00 0.00 0.00 83 1009.3
20260509071324 20 205 0.0 0.0 0.00 0.00 0.00 83 1009.3
20260509070605 20 205 0.0 1.6 0.00 0.00 0.00 83 1009.2
20260509070049 20 205 0.0 1.6 0.00 0.00 0.00 83 1008.9
20260509065527 20 205 0.0 4.8 0.00 0.00 0.00 83 1008.7
20260509065025 20 252 0.0 4.8 0.00 0.00 0.00 83 1008.4
20260509064746 21 165 1.6 8.0 0.00 0.00 0.00 82 1008.2
20260509064006 21 234 1.6 8.0 0.00 0.00 0.00 83 1008.4
20260509063442 21 233 1.6 6.4 0.00 0.00 0.00 83 1008.6
20260509062927 20 259 1.6 4.8 0.00 0.00 0.00 83 1008.6
20260509062424 20 236 1.6 4.8 0.00 0.00 0.00 83 1008.6
20260509061858 20 153 0.0 3.2 0.00 0.00 0.00 83 1008.5
20260509061342 20 127 0.0 0.0 0.00 0.00 0.00 82 1008.7
20260509060816 20 131 0.0 0.0 0.00 0.00 0.00 82 1009.1
20260509060520 20 131 0.0 3.2 0.00 0.00 0.00 81 1009.0
20260509055734 21 131 0.0 3.2 0.00 0.00 0.00 81 1009.0
20260509055501 21 343 0.0 3.2 0.00 0.00 0.00 81 1009.5
20260509054710 21 221 1.6 6.4 0.00 0.00 0.00 81 1009.4
20260509054153 21 231 1.6 6.4 0.00 0.00 0.00 81 1008.9
20260509053630 21 190 0.0 0.0 0.00 0.00 0.00 80 1009.4
20260509053106 21 326 0.0 4.8 0.00 0.00 0.00 80 1009.9
20260509052827 21 326 1.6 4.8 0.00 0.00 0.00 79 1010.1
20260509052105 21 25 1.6 4.8 0.00 0.00 0.00 79 1009.9
20260509051603 21 27 1.6 6.4 0.00 0.00 0.00 79 1009.6
20260509051102 21 273 3.2 8.0 0.00 0.00 0.00 79 1008.9
20260509050543 21 172 1.6 8.0 0.00 0.00 0.00 78 1008.6
20260509050039 21 235 1.6 6.4 0.00 0.00 0.00 78 1008.7
20260509045538 21 255 1.6 6.4 0.00 0.00 0.00 78 1008.8
20260509045005 21 250 4.8 12.9 0.00 0.00 0.00 78 1008.3
20260509044436 21 152 3.2 12.9 0.00 0.00 0.00 77 1008.1
20260509043935 21 226 1.6 6.4 0.00 0.00 0.00 78 1008.3
20260509043425 21 134 3.2 8.0 0.00 0.00 0.00 78 1008.3
20260509042922 21 112 3.2 9.7 0.00 0.00 0.00 78 1008.2
20260509042355 21 108 3.2 9.7 0.00 0.00 0.00 78 1008.1
20260509041853 21 120 1.6 6.4 0.00 0.00 0.00 77 1008.4
20260509041355 21 139 0.0 3.2 0.00 0.00 0.00 77 1008.9
20260509040838 22 112 0.0 0.0 0.00 0.00 0.00 77 1009.2
20260509040340 22 112 0.0 0.0 0.00 0.00 0.00 76 1009.4
20260509040056 22 112 0.0 0.0 0.00 0.00 0.00 76 1009.4
20260509035335 22 112 0.0 0.0 0.00 0.00 0.00 76 1009.4
20260509035028 22 112 0.0 0.0 0.00 0.00 0.00 76 1009.3
20260509034303 21 112 0.0 0.0 0.00 0.00 0.00 76 1009.2
20260509033800 21 112 0.0 0.0 0.00 0.00 0.00 76 1009.0
20260509033258 21 112 0.0 0.0 0.00 0.00 0.00 75 1008.9
20260509032949 22 112 0.0 1.6 0.00 0.00 0.00 75 1008.6
20260509032230 21 112 0.0 3.2 0.00 0.00 0.00 75 1008.5
20260509031716 21 257 0.0 3.2 0.00 0.00 0.00 75 1008.5
20260509031434 21 129 0.0 1.6 0.00 0.00 0.00 75 1008.6
20260509030902 21 129 0.0 1.6 0.00 0.00 0.00 75 1008.7
20260509030116 21 129 0.0 3.2 0.00 0.00 0.00 75 1008.6
20260509025610 21 145 0.0 3.2 0.00 0.00 0.00 74 1008.5
20260509025329 21 145 0.0 3.2 0.00 0.00 0.00 74 1008.3
20260509024604 22 187 1.6 4.8 0.00 0.00 0.00 74 1008.1
20260509024104 22 226 1.6 4.8 0.00 0.00 0.00 74 1007.9
20260509023550 22 161 1.6 8.0 0.00 0.00 0.00 74 1007.9
20260509023052 22 121 1.6 8.0 0.00 0.00 0.00 73 1008.0
20260509022528 22 302 1.6 6.4 0.00 0.00 0.00 73 1007.7
20260509022028 22 165 1.6 6.4 0.00 0.00 0.00 73 1007.6
20260509021455 22 129 1.6 8.0 0.00 0.00 0.00 73 1007.6
20260509020952 22 120 1.6 8.0 0.00 0.00 0.00 72 1007.7
20260509020449 22 159 1.6 6.4 0.00 0.00 0.00 72 1007.8
20260509020158 22 113 1.6 9.7 0.00 0.00 0.00 72 1007.8
20260509015709 22 165 3.2 9.7 0.00 0.00 0.00 72 1007.7
20260509014936 22 233 3.2 12.9 0.00 0.00 0.00 72 1007.6
20260509014436 22 232 3.2 9.7 0.00 0.00 0.00 72 1007.6
20260509013906 22 217 4.8 9.7 0.00 0.00 0.00 72 1007.6
20260509013402 22 239 3.2 9.7 0.00 0.00 0.00 72 1007.5
20260509012838 22 252 1.6 6.4 0.00 0.00 0.00 72 1007.4
20260509012330 22 213 0.0 3.2 0.00 0.00 0.00 73 1007.4
20260509011830 22 141 0.0 3.2 0.00 0.00 0.00 72 1007.3
20260509011300 22 144 0.0 3.2 0.00 0.00 0.00 72 1007.2
20260509010759 22 107 1.6 4.8 0.00 0.00 0.00 72 1007.2
20260509010515 22 264 1.6 4.8 0.00 0.00 0.00 72 1007.1
20260509005754 22 214 1.6 6.4 0.00 0.00 0.00 71 1007.0
20260509005224 22 155 3.2 6.4 0.00 0.00 0.00 71 1007.0
20260509004945 22 257 3.2 9.7 0.00 0.00 0.00 71 1007.0
20260509004213 22 170 3.2 9.7 0.00 0.00 0.00 71 1006.9
20260509003713 22 127 4.8 11.3 0.00 0.00 0.00 70 1006.8
20260509003148 22 128 4.8 11.3 0.00 0.00 0.00 70 1006.7
20260509002845 22 195 3.2 11.3 0.00 0.00 0.00 70 1006.8
20260509002052 22 153 4.8 17.7 0.00 0.00 0.00 69 1006.9
20260509001551 22 223 4.8 17.7 0.00 0.00 0.00 69 1006.9
20260509001244 22 203 3.2 9.7 0.00 0.00 0.00 69 1007.0
20260509000454 22 159 3.2 11.3 0.00 0.00 0.00 68 1007.1
20260508235951 22 127 3.2 11.3 0.00 0.00 0.00 67 1007.2
20260508235424 22 110 3.2 9.7 0.00 0.00 0.00 67 1007.2
20260508234922 22 143 3.2 8.0 0.00 0.00 0.00 66 1007.2
20260508234354 23 185 1.6 8.0 0.00 0.00 0.00 65 1007.3
20260508233852 23 113 3.2 11.3 0.00 0.00 0.00 65 1007.3
20260508233350 23 146 4.8 12.9 0.00 0.00 0.00 64 1007.3
20260508232827 23 80 3.2 12.9 0.00 0.00 0.00 64 1007.3
20260508232314 23 110 3.2 12.9 0.00 0.00 0.00 64 1007.4
20260508231814 23 164 3.2 9.7 0.00 0.00 0.00 63 1007.4
20260508231507 23 181 4.8 12.9 0.00 0.00 0.00 65 1007.4
20260508230746 23 226 6.4 12.9 0.00 0.00 0.00 64 1007.4
20260508230242 23 149 6.4 14.5 0.00 0.00 0.00 64 1007.4
20260508225721 23 240 6.4 14.5 0.00 0.00 0.00 65 1007.5
20260508225224 23 229 6.4 14.5 0.00 0.00 0.00 64 1007.5
20260508224658 23 193 8.0 16.1 0.00 0.00 0.00 63 1007.5
20260508224135 23 210 8.0 19.3 0.00 0.00 0.00 63 1007.4
20260508223609 23 211 8.0 19.3 0.00 0.00 0.00 62 1007.3
20260508223339 24 227 8.0 14.5 0.00 0.00 0.00 63 1007.3
20260508222838 24 234 6.4 20.9 0.00 0.00 0.00 62 1007.3
20260508222053 25 233 6.4 16.1 0.00 0.00 0.00 64 1007.3
20260508221552 24 143 8.0 16.1 0.00 0.00 0.00 63 1007.2
20260508221317 24 238 8.0 16.1 0.00 0.00 0.00 63 1007.3
20260508220536 24 155 6.4 16.1 0.00 0.00 0.00 64 1007.2
20260508220035 24 203 6.4 12.9 0.00 0.00 0.00 64 1007.2
20260508215521 24 212 6.4 12.9 0.00 0.00 0.00 65 1007.2
20260508215023 24 217 6.4 11.3 0.00 0.00 0.00 65 1007.2
20260508214459 24 226 6.4 14.5 0.00 0.00 0.00 64 1007.1
20260508213935 24 153 6.4 14.5 0.00 0.00 0.00 65 1007.1
20260508213411 24 128 4.8 12.9 0.00 0.00 0.00 64 1007.0
20260508213334 24 207 4.8 12.9 0.00 0.00 0.00 65 1007.0
20260508212350 23 179 4.8 12.9 0.00 0.00 0.00 69 1007.1
20260508212116 22 106 4.8 11.3 0.00 0.00 0.00 71 1007.5
20260508211328 22 124 3.2 9.7 0.00 0.00 0.00 68 1008.0
20260508210800 22 133 3.2 8.0 0.00 0.00 0.00 68 1008.1
20260508210303 22 220 3.2 11.3 0.00 0.00 0.00 68 1008.3
20260508205750 22 183 3.2 11.3 0.00 0.00 0.00 68 1008.6
20260508205509 22 122 4.8 11.3 0.00 0.00 0.00 68 1008.7
20260508205012 23 220 4.8 11.3 0.00 0.00 0.00 65 1008.9
20260508204227 23 192 4.8 11.3 0.00 0.00 0.00 64 1009.1
20260508203703 23 153 4.8 11.3 0.00 0.00 0.00 63 1009.2
20260508203143 23 149 3.2 11.3 0.00 0.00 0.00 63 1009.2
20260508202616 23 214 3.2 11.3 0.00 0.00 0.00 63 1009.3
20260508202117 23 231 3.2 11.3 0.00 0.00 0.00 62 1009.2
20260508201548 23 225 3.2 11.3 0.00 0.00 0.00 61 1009.2
20260508201048 23 225 4.8 12.9 0.00 0.00 0.00 62 1009.2
20260508200547 23 214 6.4 12.9 0.00 0.00 0.00 61 1009.2
20260508200044 24 183 4.8 14.5 0.00 0.00 0.00 60 1009.1
20260508195520 24 194 6.4 14.5 0.00 0.00 0.00 59 1009.2
20260508195235 24 224 4.8 14.5 0.00 0.00 0.00 58 1009.2
20260508194455 25 143 4.8 14.5 0.00 0.00 0.00 59 1009.3
20260508193950 25 237 8.0 19.3 0.00 0.00 0.00 60 1009.3
20260508193446 25 139 8.0 19.3 0.00 0.00 0.00 58 1009.3
20260508192943 25 134 8.0 20.9 0.00 0.00 0.00 59 1009.3
20260508192923 25 154 8.0 20.9 0.00 0.00 0.00 58 1009.3